When you browse on this site, cookies collect data to enhance your experience and personalize the content and advertising you see.
Visit our Privacy Policy to learn more. By continuing to use the site, you agree to this use of cookies and data.
  • In Netherlands
  • List of Countries
  • For 7 days
  • Water Temperature
  • Weather Map
  • Weather Widgets
  • user-avatar
    Login

    Hourly Weather Morskoe

    Today, 20 October, Sunday

    Time Temperature Precipitation Wind Pressure Humidity
    00:00 +16°C° 0 mm 1 mps 767 mmHg 89%
    01:00 +16°C° 0 mm 2 mps 767 mmHg 89%
    02:00 +16°C° 0 mm 2 mps 767 mmHg 89%
    03:00 +16°C° 0 mm 2 mps 767 mmHg 91%
    04:00 +16°C° 0 mm 2 mps 768 mmHg 91%
    05:00 +15°C° 0 mm 2 mps 768 mmHg 90%
    06:00 +15°C° 0 mm 2 mps 768 mmHg 90%
    07:00 +17°C° 0 mm 2 mps 768 mmHg 84%
    08:00 +18°C° 0 mm 2 mps 769 mmHg 78%
    09:00 +20°C° 0 mm 2 mps 769 mmHg 71%
    10:00 +21°C° 0 mm 3 mps 769 mmHg 66%
    11:00 +22°C° 0 mm 3 mps 769 mmHg 60%
    12:00 +24°C° 0 mm 3 mps 769 mmHg 54%
    13:00 +22°C° 0 mm 3 mps 768 mmHg 56%
    14:00 +22°C° 0 mm 3 mps 768 mmHg 59%
    15:00 +21°C° 0 mm 3 mps 768 mmHg 61%
    16:00 +20°C° 0 mm 2 mps 768 mmHg 69%
    17:00 +18°C° 0 mm 2 mps 769 mmHg 77%
    18:00 +16°C° 0 mm 1 mps 769 mmHg 85%
    19:00 +16°C° 0 mm 1 mps 769 mmHg 86%
    20:00 +16°C° 0 mm 1 mps 769 mmHg 86%
    21:00 +16°C° 0 mm 1 mps 769 mmHg 87%
    22:00 +15°C° 0 mm 1 mps 769 mmHg 87%
    23:00 +15°C° 0 mm 1 mps 769 mmHg 87%

    Tomorrow, 21 October, Monday

    Time Temperature Precipitation Wind Pressure Humidity
    00:00 +15°C° 0 mm 1 mps 769 mmHg 87%
    01:00 +15°C° 0 mm 1 mps 769 mmHg 87%
    02:00 +14°C° 0 mm 1 mps 769 mmHg 87%
    03:00 +14°C° 0 mm 1 mps 769 mmHg 87%
    04:00 +14°C° 0 mm 1 mps 769 mmHg 87%
    05:00 +14°C° 0 mm 1 mps 769 mmHg 87%
    06:00 +14°C° 0 mm 1 mps 770 mmHg 87%
    07:00 +15°C° 0 mm 1 mps 770 mmHg 80%
    08:00 +17°C° 0 mm 2 mps 770 mmHg 73%
    09:00 +19°C° 0 mm 2 mps 770 mmHg 65%
    10:00 +20°C° 0 mm 2 mps 770 mmHg 62%
    11:00 +20°C° 0 mm 2 mps 770 mmHg 59%
    12:00 +21°C° 0 mm 2 mps 769 mmHg 57%
    13:00 +21°C° 0 mm 3 mps 769 mmHg 59%
    14:00 +20°C° 0 mm 3 mps 769 mmHg 61%
    15:00 +20°C° 0 mm 3 mps 769 mmHg 63%
    16:00 +18°C° 0 mm 2 mps 769 mmHg 70%
    17:00 +18°C° 0 mm 1 mps 769 mmHg 77%
    18:00 +16°C° 0 mm 1 mps 769 mmHg 84%
    19:00 +15°C° 0 mm 1 mps 769 mmHg 85%
    20:00 +15°C° 0 mm 1 mps 769 mmHg 86%
    21:00 +15°C° 0 mm 1 mps 769 mmHg 88%
    22:00 +14°C° 0 mm 1 mps 769 mmHg 88%
    23:00 +14°C° 0 mm 1 mps 769 mmHg 88%

    Day after tomorrow, 22 October, Tuesday

    Time Temperature Precipitation Wind Pressure Humidity
    00:00 +14°C° 0 mm 1 mps 769 mmHg 89%
    01:00 +14°C° 0 mm 1 mps 769 mmHg 89%
    02:00 +14°C° 0 mm 1 mps 769 mmHg 89%
    03:00 +13°C° 0 mm 1 mps 768 mmHg 89%
    04:00 +13°C° 0 mm 1 mps 768 mmHg 89%
    05:00 +13°C° 0 mm 1 mps 768 mmHg 89%
    06:00 +13°C° 0 mm 1 mps 768 mmHg 89%
    07:00 +15°C° 0 mm 1 mps 769 mmHg 83%
    08:00 +16°C° 0 mm 1 mps 769 mmHg 76%
    09:00 +19°C° 0 mm 1 mps 769 mmHg 70%
    10:00 +19°C° 0 mm 2 mps 768 mmHg 67%
    11:00 +19°C° 0 mm 2 mps 768 mmHg 64%
    12:00 +20°C° 0 mm 2 mps 768 mmHg 61%
    13:00 +20°C° 0 mm 2 mps 768 mmHg 61%
    14:00 +20°C° 0 mm 2 mps 768 mmHg 62%
    15:00 +19°C° 0 mm 2 mps 767 mmHg 62%
    16:00 +18°C° 0 mm 2 mps 768 mmHg 68%
    17:00 +17°C° 0 mm 2 mps 768 mmHg 74%
    18:00 +15°C° 0 mm 1 mps 768 mmHg 81%
    19:00 +15°C° 0 mm 1 mps 768 mmHg 82%
    20:00 +15°C° 0 mm 1 mps 768 mmHg 84%
    21:00 +14°C° 0 mm 1 mps 768 mmHg 85%
    22:00 +14°C° 0 mm 1 mps 768 mmHg 86%
    23:00 +14°C° 0 mm 1 mps 768 mmHg 87%

    23 October, Wednesday

    Time Temperature Precipitation Wind Pressure Humidity
    00:00 +14°C° 0 mm 1 mps 768 mmHg 87%
    01:00 +13°C° 0 mm 1 mps 768 mmHg 88%
    02:00 +13°C° 0 mm 1 mps 768 mmHg 88%
    03:00 +13°C° 0 mm 2 mps 768 mmHg 88%
    04:00 +13°C° 0 mm 2 mps 768 mmHg 88%
    05:00 +13°C° 0 mm 2 mps 768 mmHg 88%
    06:00 +13°C° 0 mm 2 mps 768 mmHg 88%
    07:00 +14°C° 0 mm 2 mps 768 mmHg 83%
    08:00 +16°C° 0 mm 2 mps 768 mmHg 77%
    09:00 +17°C° 0 mm 2 mps 768 mmHg 71%
    10:00 +18°C° 0 mm 2 mps 768 mmHg 69%
    11:00 +19°C° 0 mm 3 mps 768 mmHg 66%
    12:00 +19°C° 0 mm 3 mps 768 mmHg 63%
    13:00 +19°C° 0 mm 3 mps 768 mmHg 64%
    14:00 +18°C° 0 mm 3 mps 768 mmHg 65%
    15:00 +18°C° 0 mm 3 mps 768 mmHg 66%
    16:00 +17°C° 0 mm 2 mps 768 mmHg 69%
    17:00 +16°C° 0 mm 2 mps 768 mmHg 72%
    18:00 +15°C° 0 mm 1 mps 768 mmHg 75%
    19:00 +15°C° 0 mm 1 mps 768 mmHg 77%
    20:00 +14°C° 0 mm 1 mps 769 mmHg 80%
    21:00 +14°C° 0 mm 1 mps 769 mmHg 82%
    22:00 +12°C° 0 mm 0 mps 769 mmHg 83%
    23:00 +12°C° 0 mm 0 mps 768 mmHg 85%

    24 October, Thursday

    Time Temperature Precipitation Wind Pressure Humidity
    00:00 +12°C° 0 mm 0 mps 768 mmHg 86%
    01:00 +12°C° 0 mm 0 mps 768 mmHg 86%
    02:00 +11°C° 0 mm 0 mps 768 mmHg 86%
    03:00 +11°C° 0 mm 0 mps 768 mmHg 87%
    04:00 +11°C° 0 mm 0 mps 768 mmHg 87%
    05:00 +11°C° 0 mm 0 mps 768 mmHg 87%
    06:00 +11°C° 0 mm 0 mps 768 mmHg 87%
    07:00 +14°C° 0 mm 1 mps 768 mmHg 81%
    08:00 +15°C° 0 mm 1 mps 768 mmHg 74%
    09:00 +18°C° 0 mm 1 mps 768 mmHg 68%
    10:00 +18°C° 0 mm 2 mps 767 mmHg 65%
    11:00 +19°C° 0 mm 2 mps 767 mmHg 62%
    12:00 +20°C° 0 mm 3 mps 767 mmHg 59%
    13:00 +19°C° 0 mm 3 mps 766 mmHg 61%
    14:00 +19°C° 0 mm 3 mps 766 mmHg 63%
    15:00 +19°C° 0 mm 3 mps 766 mmHg 64%
    16:00 +17°C° 0 mm 3 mps 766 mmHg 71%
    17:00 +16°C° 0 mm 2 mps 766 mmHg 78%
    18:00 +14°C° 0 mm 2 mps 766 mmHg 85%
    19:00 +14°C° 0 mm 2 mps 766 mmHg 87%
    20:00 +14°C° 0 mm 2 mps 766 mmHg 88%
    21:00 +14°C° 0 mm 1 mps 766 mmHg 89%
    22:00 +13°C° 0 mm 1 mps 766 mmHg 89%
    23:00 +13°C° 0 mm 1 mps 766 mmHg 89%

    25 October, Friday

    Time Temperature Precipitation Wind Pressure Humidity
    00:00 +13°C° 0 mm 1 mps 766 mmHg 88%
    01:00 +13°C° 0 mm 1 mps 765 mmHg 87%
    02:00 +13°C° 0 mm 1 mps 765 mmHg 87%
    03:00 +13°C° 0 mm 2 mps 765 mmHg 86%
    04:00 +13°C° 0 mm 1 mps 765 mmHg 85%
    05:00 +13°C° 0 mm 1 mps 765 mmHg 85%
    06:00 +13°C° 0 mm 1 mps 765 mmHg 85%
    07:00 +14°C° 0 mm 1 mps 765 mmHg 79%
    08:00 +16°C° 0 mm 1 mps 765 mmHg 74%
    09:00 +19°C° 0 mm 1 mps 765 mmHg 68%
    10:00 +19°C° 0 mm 2 mps 765 mmHg 65%
    11:00 +20°C° 0 mm 2 mps 765 mmHg 61%
    12:00 +21°C° 0 mm 3 mps 765 mmHg 57%
    13:00 +21°C° 0 mm 3 mps 765 mmHg 60%
    14:00 +21°C° 0 mm 4 mps 764 mmHg 63%
    15:00 +21°C° 0 mm 4 mps 764 mmHg 66%
    16:00 +20°C° 0 mm 4 mps 765 mmHg 73%
    17:00 +18°C° 0 mm 3 mps 765 mmHg 80%
    18:00 +17°C° 0 mm 3 mps 765 mmHg 86%
    19:00 +17°C° 0 mm 3 mps 765 mmHg 86%
    20:00 +16°C° 0 mm 2 mps 765 mmHg 86%
    21:00 +16°C° 0 mm 2 mps 765 mmHg 85%
    22:00 +16°C° 0 mm 2 mps 765 mmHg 85%
    23:00 +15°C° 0 mm 2 mps 765 mmHg 85%
    Show more